Location: Aubervilles
(48.9167°N, 2.3833°E)
Time: 10:36:57
(UTC+00:00)

DELTA 2 DEB (DPAF) - Pass Details

Date: 03 February 2023
Orbit: 624 x 629 km, 98.4° (Epoch: 29 March)

Event Time Altitude Azimuth Distance (km) Brightness Sun altitude
Rises 17:46:23 0° 13° (NNE) 2,930 7.2 -9.4°
Reaches altitude 10° 17:48:35 10° 13° (NNE) 2,019 6.4 -9.8°
Maximum altitude 17:52:58 81° 288° (WNW) 645 4.2 -10.5°
Drops below altitude 10° 17:57:22 10° 200° (SSW) 2,012 7.1 -11.2°
Sets 17:59:33 0° 199° (SSW) 2,917 8.0 -11.6°
